Location: Holyhead Bay
(53.3667°N, 4.6667°W)
Time: 18:52:39
(UTC+00:00)

Cosmos 1656 Rocket - Pass Details

Date: 24 November 2020
Orbit: 796 x 846 km, 71.1° (Epoch: 17 January)

Event Time Altitude Azimuth Distance (km) Brightness Sun altitude
Rises 19:29:04 0° 328° (NNW) 3,417 7.3 -28.9°
Reaches altitude 10° 19:31:32 10° 330° (NNW) 2,475 6.5 -29.3°
Enters shadow 19:35:47 51° 343° (NNW) 1,050 4.2 -29.9°
